Tracking 19817 objects as of 18-Aug-2019
HD Live streaming from Space Station
objects crossing your sky now

FENGYUN 1C DEB

Track FENGYUN 1C DEB now!
10-day predictions


NORAD ID: 31325
Int'l Code: 1999-025BQD
Perigee: 830.7 km
Apogee: 951.6 km
Inclination: 99.1 °
Period: 102.6 minutes
Semi major axis: 7262 km
RCS: 0.0037 m2 (small)
Launch date: May 10, 1999
Source: People's Republic of China (PRC)
Launch site: Taiyaun Space Center, China (TSC)

Note: This is SATELLITE DEBRIS
aabbcc
Your satellite tracking list
Your tracking list is empty




NASA's NSSDC Master Catalog

Two Line Element Set (TLE):
1 31325U 99025BQD 19216.37075347 +.00000411 +00000-0 +28575-3 0  9990
2 31325 099.0946 281.0063 0083240 225.0991 134.3398 14.02832170271209
Source of the keplerian elements: AFSPC